C/2017 K5 ( PanSTARRS )

Japanese version
Home page
Updated on November 10, 2019

---------------------------------------------------------------------

* Profile

Discovery Date May 27, 2017
Magnitude 22.0 mag
Discoverer Pan-STARRS 1 telescope (Haleakala)

* Pictures

* Orbital Elements

Epoch 2020 Mar. 12.0 TT = JDT 2458920.5
T 2020 Mar. 24.16386 TT                                 Williams
q   7.6786687            (2000.0)            P               Q
z  -0.0008318      Peri.  171.83568     +0.19343855     +0.16058476
 +/-0.0000030      Node   102.37347     -0.94682119     +0.28909121
e   1.0063873      Incl.   82.26374     -0.25712090     -0.94373662
From 68 observations 2017 May 27-2019 Oct. 26, mean residual 0".4.

* Magnitudes Graph

        m1 = -8.7 + 5 log d + 25.0 log r

---------------------------------------------------------------------

The orbital elements are published on M.P.E.C. 2019-V116.
The magnitudes graphs are made with Comet for Windows.

---------------------------------------------------------------------

Copyright(C) Seiichi Yoshida (comet@aerith.net). All rights reserved.